GW4332 Weather Reports


time (UTC)temp
C
wind
direction
speed
KPH
gust
KPH
rain 1hr
cm
rain 24hr
cm
rain mn
cm
humidity
%
barometer
mb
20260506033030 10 38 14.5 24.1 0.00 0.00 0.00 83 1008.5
20260506032030 10 40 17.7 29.0 0.00 0.00 0.00 83 1008.5
20260506031030 10 38 17.7 29.0 0.00 0.00 0.00 83 1008.6
20260506030030 10 39 17.7 30.6 0.00 0.00 0.00 83 1008.7
20260506025029 10 36 16.1 25.7 0.00 0.00 0.00 83 1008.9
20260506024030 10 36 16.1 27.4 0.00 0.00 0.00 82 1008.9
20260506023030 10 43 16.1 25.7 0.00 0.00 0.00 82 1008.9
20260506022030 10 46 14.5 24.1 0.00 0.00 0.00 81 1009.0
20260506021029 10 37 14.5 22.5 0.00 0.00 0.00 80 1008.9
20260506020029 10 39 12.9 22.5 0.00 0.00 0.00 80 1008.9
20260506015030 10 43 14.5 22.5 0.00 0.00 0.00 79 1008.9
20260506014030 10 44 12.9 22.5 0.00 0.00 0.00 79 1009.0
20260506013030 10 46 17.7 27.4 0.00 0.00 0.00 79 1009.1
20260506012029 10 47 14.5 25.7 0.00 0.00 0.00 79 1009.1
20260506011029 10 41 16.1 30.6 0.00 0.00 0.00 79 1009.1
20260506010030 10 45 17.7 27.4 0.00 0.00 0.00 79 1009.3
20260506005030 10 50 14.5 22.5 0.00 0.00 0.00 78 1009.4
20260506004030 10 41 19.3 30.6 0.00 0.00 0.00 78 1009.5
20260506003030 10 41 17.7 30.6 0.00 0.00 0.00 78 1009.5
20260506002029 10 39 16.1 29.0 0.00 0.00 0.00 78 1009.6
20260506001030 10 49 17.7 33.8 0.00 0.00 0.00 78 1009.7
20260506000030 10 45 16.1 30.6 0.00 0.00 0.00 78 1009.7
20260505235030 10 35 16.1 27.4 0.00 0.00 0.00 79 1009.9
20260505234029 10 36 14.5 27.4 0.00 0.00 0.00 79 1010.0
20260505233029 10 36 16.1 24.1 0.00 0.00 0.00 79 1010.0
20260505232030 10 33 16.1 29.0 0.00 0.00 0.00 79 1010.1
20260505231030 10 37 14.5 22.5 0.00 0.00 0.00 80 1010.1
20260505230030 10 43 16.1 25.7 0.00 0.00 0.00 80 1010.1
20260505225030 10 43 16.1 27.4 0.00 0.00 0.00 80 1010.2
20260505224030 10 49 17.7 27.4 0.00 0.00 0.00 80 1010.2
20260505223029 10 45 16.1 25.7 0.00 0.00 0.00 80 1010.6
20260505222029 10 50 16.1 25.7 0.00 0.00 0.00 80 1010.6
20260505221029 10 39 16.1 27.4 0.00 0.00 0.00 80 1010.6
20260505220029 10 48 16.1 24.1 0.00 0.00 0.00 79 1010.7
20260505215029 10 47 17.7 27.4 0.00 0.00 0.00 79 1010.6
20260505214030 10 43 12.9 22.5 0.00 0.00 0.00 79 1010.7
20260505213030 10 49 16.1 25.7 0.00 0.00 0.00 79 1010.7
20260505212030 10 40 16.1 25.7 0.00 0.00 0.00 78 1010.7
20260505211030 10 47 14.5 25.7 0.00 0.00 0.00 78 1010.7
20260505210030 10 34 17.7 29.0 0.00 0.00 0.00 77 1010.8
20260505205030 10 39 17.7 29.0 0.00 0.00 0.00 76 1010.9
20260505204030 10 42 14.5 29.0 0.00 0.00 0.00 76 1010.9
20260505203030 10 61 16.1 29.0 0.00 0.00 0.00 74 1011.1
20260505202029 10 46 14.5 22.5 0.00 0.00 0.00 73 1011.0
20260505201029 10 46 14.5 27.4 0.00 0.00 0.00 71 1011.0
20260505200030 10 39 14.5 27.4 0.00 0.00 0.00 70 1010.9
20260505195030 10 54 11.3 22.5 0.00 0.00 0.00 70 1010.8
20260505194030 10 40 14.5 22.5 0.00 0.00 0.00 70 1010.7
20260505193030 11 31 14.5 24.1 0.00 0.00 0.00 70 1010.6
20260505192030 11 40 17.7 30.6 0.00 0.00 0.00 70 1010.6
20260505191030 11 47 14.5 24.1 0.00 0.00 0.00 70 1010.5
20260505190030 11 41 14.5 27.4 0.00 0.00 0.00 71 1010.3
20260505185029 11 36 14.5 27.4 0.00 0.00 0.00 70 1010.3
20260505184029 11 42 12.9 22.5 0.00 0.00 0.00 71 1010.2
20260505183030 11 31 14.5 24.1 0.00 0.00 0.00 71 1010.2
20260505182030 11 44 14.5 25.7 0.00 0.00 0.00 70 1010.2
20260505181030 12 31 14.5 22.5 0.00 0.00 0.00 71 1010.3
20260505180030 12 43 14.5 24.1 0.00 0.00 0.00 69 1010.3
20260505175029 12 40 14.5 25.7 0.00 0.00 0.00 68 1010.3
20260505174029 12 22 14.5 22.5 0.00 0.00 0.00 68 1010.4
20260505173030 12 40 14.5 25.7 0.00 0.00 0.00 68 1010.3
20260505172030 12 44 14.5 25.7 0.00 0.00 0.00 67 1010.5
20260505171030 12 38 16.1 29.0 0.00 0.00 0.00 68 1010.3
20260505170030 12 29 12.9 24.1 0.00 0.00 0.00 68 1010.4
20260505165030 12 39 12.9 24.1 0.00 0.00 0.00 68 1010.3
20260505164030 13 41 14.5 22.5 0.00 0.00 0.00 67 1010.4
20260505163030 13 40 11.3 20.9 0.00 0.00 0.00 67 1010.4
20260505162030 13 36 14.5 24.1 0.00 0.00 0.00 66 1010.4
20260505161029 13 46 12.9 27.4 0.00 0.00 0.00 67 1010.5
20260505153029 13 5 17.7 30.6 0.00 0.00 0.00 68 1010.4
20260505152030 13 347 16.1 27.4 0.00 0.00 0.00 69 1010.4
20260505151030 13 14 17.7 30.6 0.00 0.00 0.00 68 1010.4
20260505125030 13 1 17.7 27.4 0.00 0.00 0.00 68 1011.1
20260505124030 13 18 17.7 25.7 0.00 0.00 0.00 68 1011.1
20260505123030 13 13 16.1 25.7 0.00 0.00 0.00 70 1011.2
20260505122029 13 358 14.5 24.1 0.00 0.00 0.00 69 1011.3
20260505121029 13 27 14.5 25.7 0.00 0.00 0.00 68 1011.2
20260505120030 13 38 9.7 22.5 0.00 0.00 0.00 67 1011.2
20260505115029 13 34 9.7 22.5 0.00 0.00 0.00 68 1011.4
20260505114030 12 55 11.3 24.1 0.00 0.00 0.00 68 1011.3
20260505113030 12 25 11.3 24.1 0.00 0.00 0.00 69 1011.4
20260505112030 12 14 11.3 20.9 0.00 0.00 0.00 70 1011.4
20260505111030 12 36 11.3 24.1 0.00 0.00 0.00 70 1011.5
20260505102029 11 58 11.3 19.3 0.00 0.00 0.00 75 1011.9
20260505101029 11 42 11.3 19.3 0.00 0.00 0.00 76 1012.0
20260505100029 11 41 11.3 22.5 0.00 0.00 0.00 77 1011.9
20260505095029 11 41 11.3 22.5 0.00 0.00 0.00 79 1012.0
20260505094030 11 43 9.7 20.9 0.00 0.00 0.00 79 1011.9
20260505093030 10 48 12.9 24.1 0.00 0.00 0.00 80 1012.1
20260505092030 10 52 9.7 20.9 0.00 0.00 0.00 82 1012.1
20260505091030 10 55 12.9 20.9 0.00 0.00 0.00 83 1011.9
20260505090030 10 47 14.5 22.5 0.00 0.00 0.00 85 1012.0
20260505085030 10 45 14.5 22.5 0.00 0.00 0.00 85 1011.8
20260505084030 10 48 12.9 20.9 0.00 0.00 0.00 86 1012.0
20260505083030 10 56 14.5 24.1 0.00 0.00 0.00 86 1012.1
20260505082030 10 57 14.5 24.1 0.00 0.00 0.00 87 1012.1
20260505081030 9 44 16.1 22.5 0.00 0.00 0.00 87 1012.3
20260505080030 9 53 11.3 20.9 0.00 0.00 0.00 88 1012.3
20260505075029 9 63 9.7 20.9 0.00 0.00 0.00 88 1012.3
20260505074030 9 53 9.7 17.7 0.00 0.00 0.00 88 1012.4
20260505073030 9 64 12.9 20.9 0.00 0.00 0.00 88 1012.4
20260505072030 9 55 9.7 19.3 0.00 0.00 0.00 88 1012.5
20260505071030 9 63 8.0 14.5 0.00 0.00 0.00 88 1012.6
20260505070030 8 64 9.7 22.5 0.00 0.00 0.00 88 1012.7
20260505065029 9 63 9.7 20.9 0.00 0.00 0.00 88 1012.6
20260505064029 9 67 9.7 19.3 0.00 0.00 0.00 88 1012.6
20260505063030 8 74 9.7 19.3 0.00 0.00 0.00 88 1012.5
20260505062030 9 54 9.7 19.3 0.00 0.00 0.00 88 1012.5
20260505061030 8 58 11.3 20.9 0.00 0.00 0.00 88 1012.4
20260505060030 8 52 9.7 19.3 0.00 0.00 0.00 88 1012.4
20260505055030 8 60 12.9 22.5 0.00 0.00 0.00 88 1012.3
20260505054030 8 56 11.3 20.9 0.00 0.00 0.00 88 1012.3
20260505053030 8 63 11.3 20.9 0.00 0.00 0.00 88 1012.2
20260505052030 8 60 11.3 20.9 0.00 0.00 0.00 88 1012.1
20260505051029 8 60 9.7 22.5 0.00 0.00 0.00 88 1012.1
20260505041030 9 63 6.4 17.7 0.00 0.00 0.00 87 1012.3
20260505040030 9 59 8.0 16.1 0.00 0.00 0.00 87 1012.3
20260505035030 9 63 9.7 19.3 0.00 0.00 0.00 87 1012.2
20260505034030 9 64 9.7 22.5 0.00 0.00 0.00 87 1012.2